Wallops Island, VA

3:21 AM EST on December 08, 2019 (GMT -0500)
Wallops Flight Facility

Weather History for KWAL - October, 2019

Change the Weather History Date:

Monday, October 28, 2019

  Actual Average Record
Temperature  
Mean Temperature 57 °F 55 °F  
Max Temperature 66 °F 65 °F 81 °F (2014)
Min Temperature 48 °F 46 °F 31 °F (1976)
Degree Days  
Heating Degree Days 8    
Month to date heating degree days 110  
Since 1 July heating degree days 119  
Cooling Degree Days 0    
Month to date cooling degree days 57  
Year to date cooling degree days 1804  
Growing Degree Days 7 (Base 50)    
Moisture  
Dew Point 53 °F    
Average Humidity 76    
Maximum Humidity 96    
Minimum Humidity 63    
Precipitation  
Precipitation 0.00 in 0.10 in 1.79 in (2012)
Month to date precipitation 7.32 2.83  
Year to date precipitation 41.65 34.20  
Sea Level Pressure  
Sea Level Pressure 30.15 in    
Wind  
Wind Speed 8 mph ()    
Max Wind Speed 20 mph    
Max Gust Speed 27 mph    
Visibility 10.0 miles    
Events      
T = Trace of Precipitation, MM = Missing Value Source: Averaged Metar Reports

Daily Weather History Graph

Daily Weather History Graph

Search for Another Location

Airport or City:

Astronomy

Oct. 28, 2019 Rise Set
Actual Time 7:23 AM EDT 6:07 PM EDT
Civil Twilight 6:56 AM EDT 6:34 PM EDT
Nautical Twilight 6:25 AM EDT 7:05 PM EDT
Astronomical Twilight 5:54 AM EDT 7:36 PM EDT
Moon 7:42 AM EDT (10/28) 6:51 PM EDT (10/28)
Length of Visible Light 11h 38m
Length of Day
10h 44m
New Moon, 0% of the Moon is Illuminated
Oct 28
New Moon
Nov 4
First Quarter
Nov 12
Full
Nov 19
Last Quarter
Nov 26
New

Hourly Weather History & Observations

Time (EDT) Temp. Dew Point Humidity Pressure Visibility Wind Dir Wind Speed Gust Speed Precip Events Conditions
12:54 AM 61.0 °F 53.1 °F 75% 29.96 in 10.0 mi NW 8.1 mph - N/A   Clear
1:54 AM 60.1 °F 51.1 °F 72% 29.97 in 10.0 mi NNW 10.4 mph - N/A   Clear
2:54 AM 59.0 °F 51.1 °F 75% 29.99 in 10.0 mi North 5.8 mph - N/A   Clear
3:54 AM 55.9 °F 51.1 °F 84% 30.01 in 10.0 mi North 6.9 mph - N/A   Clear
4:54 AM 54.0 °F 51.1 °F 90% 30.04 in 10.0 mi North 4.6 mph - N/A   Clear
5:54 AM 53.1 °F 48.9 °F 86% 30.07 in 10.0 mi Calm Calm - N/A   Clear
6:54 AM 50.0 °F 48.9 °F 96% 30.09 in 10.0 mi NW 4.6 mph - N/A   Clear
7:54 AM 51.1 °F 48.9 °F 92% 30.12 in 10.0 mi WNW 4.6 mph - N/A   Partly Cloudy
8:54 AM 55.0 °F 50.0 °F 83% 30.14 in 10.0 mi North 8.1 mph - N/A   Partly Cloudy
9:54 AM 59.0 °F 51.1 °F 75% 30.16 in 10.0 mi North 8.1 mph - N/A   Partly Cloudy
10:54 AM 62.1 °F 52.0 °F 70% 30.17 in 10.0 mi NE 16.1 mph 23.0 mph N/A   Clear
11:54 AM 64.0 °F 52.0 °F 65% 30.18 in 10.0 mi ENE 15.0 mph - N/A   Partly Cloudy
12:54 PM 64.0 °F 54.0 °F 70% 30.17 in 10.0 mi NE 16.1 mph - N/A   Scattered Clouds
1:54 PM 64.9 °F 54.0 °F 68% 30.17 in 10.0 mi ENE 13.8 mph - N/A   Mostly Cloudy
2:01 PM 66.0 °F 54.0 °F 65% 30.17 in 10.0 mi ENE 13.8 mph - N/A   Partly Cloudy
2:20 PM 64.0 °F 54.0 °F 70% 30.18 in 10.0 mi NE 13.8 mph - N/A   Mostly Cloudy
2:54 PM 64.0 °F 55.0 °F 73% 30.17 in 10.0 mi ENE 13.8 mph - N/A   Overcast
3:54 PM 62.1 °F 54.0 °F 75% 30.18 in 10.0 mi ENE 9.2 mph - N/A   Overcast
4:07 PM 62.1 °F 53.1 °F 72% 30.18 in 10.0 mi NE 12.7 mph - N/A   Overcast
4:29 PM 62.1 °F 52.0 °F 70% 30.18 in 10.0 mi North - - N/A   Overcast
4:43 PM 63.0 °F 53.1 °F 70% 30.18 in 10.0 mi North - - N/A   Overcast
4:54 PM 62.1 °F 54.0 °F 75% 30.17 in 10.0 mi North - - N/A   Overcast
5:54 PM 61.0 °F 55.0 °F 81% 30.18 in 10.0 mi East 6.9 mph - N/A   Mostly Cloudy
6:05 PM 61.0 °F 55.0 °F 81% 30.19 in 10.0 mi East 8.1 mph - N/A   Overcast
6:54 PM 61.0 °F 55.9 °F 83% 30.19 in 10.0 mi ENE 11.5 mph - N/A   Overcast
7:54 PM 61.0 °F 54.0 °F 78% 30.19 in 10.0 mi ENE 8.1 mph - N/A   Overcast
8:44 PM 61.0 °F 53.1 °F 75% 30.21 in 10.0 mi ENE 9.2 mph - N/A   Overcast
8:54 PM 61.0 °F 53.1 °F 75% 30.21 in 10.0 mi ENE 10.4 mph - N/A   Overcast
9:54 PM 61.0 °F 54.0 °F 78% 30.21 in 10.0 mi ENE 11.5 mph - N/A   Overcast
10:54 PM 61.0 °F 52.0 °F 72% 30.22 in 10.0 mi East 10.4 mph - N/A   Overcast
11:33 PM 60.1 °F 53.1 °F 78% 30.23 in 10.0 mi ENE 8.1 mph - N/A   Overcast
11:54 PM 61.0 °F 53.1 °F 75% 30.23 in 10.0 mi ENE 9.2 mph - N/A   Overcast